Home > Weather > Peoria > Past weeks

Flag for U.S.A. Weather for the Past 2 Weeks in Peoria, Illinois, U.S.A.

Now
22 °F

Light snow. Cloudy.


Feels Like: 10 °F
Forecast: 20 / 33 °F
Wind: 12 mph from Northwest

Location: Greater Peoria Regional Airport

Current Time: Feb 8, 2016 at 11:51:19 AM

Latest Report: Feb 8, 2016 at 10:54 AM


Visibility: 2 mi

Pressure: 29.82 "Hg

Humidity: 72%

Dew point: 14 °F

Location of PeoriaLocation

Historic Weather in Peoria — Graph

°F

Peoria Temperature Yesterday

Maximum temperature yesterday: 48 °F (at 2:54 PM)
Minimum temperature yesterday: 33 °F (at 11:54 PM)
Average temperature yesterday: 40 °F

High & Low Weather Summary for the Past Weeks

 TemperatureHumidityPressure
High54 °F (Jan 31, 12:54 PM)97% (Feb 2, 9:54 PM)30.45 "Hg (Feb 2, 9:54 PM)
Low17 °F (Feb 4, 6:54 AM)41% (Feb 6, 2:54 PM)29.48 "Hg (Feb 2, 2:54 PM)
Average35 °F73%29.96 "Hg
* Reported Jan 24 9:54 AM — Feb 8 9:54 AM, Peoria, Weather by CustomWeather, © 2016

Note: Actual official high and low records may vary slightly from our data, if they occured in-between our weather recording intervals... More about our weather records

Advertising

Peoria Weather History for the Previous 24 Hours

 ConditionsComfort  
Time TempWeatherWind HumidityBarometerVisibility
9:54 AM
Mon, Feb 8
22 °FLight snow. Mostly cloudy.13 mph68%29.81 "Hg5 mi
8:54 AM22 °FMostly cloudy.17 mph62%29.80 "Hg10 mi
8:01 AM22 °FMostly cloudy.10 mph75%29.76 "Hg10 mi
6:54 AM24 °FLight snow. Mostly cloudy.18 mph71%29.77 "Hg4 mi
5:54 AM28 °FOvercast.16 mph64%29.74 "Hg10 mi
4:54 AM32 °FOvercast.13 mph69%29.71 "Hg10 mi
3:54 AM33 °FMostly cloudy.12 mph85%29.71 "Hg10 mi
2:54 AM33 °FLight snow. Fog.9 mph88%29.71 "Hg3 mi
1:54 AM33 °FMostly cloudy.7 mph82%29.73 "Hg10 mi
12:54 AM32 °FClear.6 mph79%29.75 "Hg10 mi
11:54 PM
Sun, Feb 7
33 °FPassing clouds.8 mph75%29.77 "Hg10 mi
10:54 PM36 °FOvercast.7 mph67%29.79 "Hg10 mi
9:54 PM35 °FOvercast.6 mph70%29.81 "Hg10 mi
8:54 PM35 °FClear.5 mph67%29.82 "Hg10 mi
7:54 PM39 °FClear.8 mph60%29.84 "Hg10 mi
6:54 PM39 °FClear.5 mph60%29.85 "Hg10 mi
5:54 PM42 °FClear.7 mph53%29.85 "Hg10 mi
4:54 PM45 °FSunny.10 mph49%29.84 "Hg10 mi
3:54 PM47 °FSunny.14 mph48%29.83 "Hg10 mi
2:54 PM48 °FPassing clouds.17 mph50%29.82 "Hg10 mi
1:54 PM46 °FSunny.10 mph54%29.81 "Hg10 mi
12:54 PM45 °FSunny.16 mph56%29.84 "Hg10 mi
11:54 AM45 °FSunny.15 mph53%29.84 "Hg10 mi
Weather by CustomWeather, © 2016

See weather overviewHow to use our weather pages